| time (UTC) | temp F | wind direction | speed MPH | gust MPH | rain 1hr in | rain 24hr in | rain mn in | humidity % | barometer mb |
| 20260510151524 | 55 | 252 | 3.0 | 7.0 | 0.00 | 0.35 | 0.01 | 99 | 1015.6 |
| 20260510151025 | 55 | 252 | 2.0 | 7.0 | 0.00 | 0.35 | 0.01 | 99 | 1015.7 |
| 20260510150524 | 55 | 252 | 3.0 | 7.0 | 0.00 | 0.35 | 0.01 | 99 | 1015.7 |
| 20260510150037 | 55 | 252 | 3.0 | 7.0 | 0.00 | 0.35 | 0.01 | 99 | 1015.7 |
| 20260510145528 | 55 | 252 | 3.0 | 7.0 | 0.00 | 0.35 | 0.01 | 99 | 1015.7 |
| 20260510145023 | 55 | 252 | 2.0 | 5.0 | 0.00 | 0.35 | 0.01 | 99 | 1015.7 |
| 20260510144523 | 55 | 252 | 0.0 | 5.0 | 0.00 | 0.35 | 0.01 | 99 | 1015.7 |
| 20260510144022 | 54 | 252 | 2.0 | 5.0 | 0.00 | 0.35 | 0.01 | 99 | 1015.6 |
| 20260510143520 | 54 | 252 | 1.0 | 7.0 | 0.00 | 0.35 | 0.01 | 99 | 1015.6 |
| 20260510143023 | 54 | 252 | 3.0 | 9.0 | 0.00 | 0.35 | 0.01 | 99 | 1015.4 |
| 20260510142519 | 54 | 252 | 3.0 | 9.0 | 0.00 | 0.35 | 0.01 | 99 | 1015.3 |
| 20260510142019 | 54 | 252 | 3.0 | 7.0 | 0.00 | 0.35 | 0.01 | 99 | 1015.3 |
| 20260510141527 | 54 | 252 | 2.0 | 7.0 | 0.00 | 0.35 | 0.01 | 99 | 1015.4 |
| 20260510141019 | 54 | 252 | 2.0 | 9.0 | 0.00 | 0.35 | 0.01 | 99 | 1015.2 |
| 20260510140518 | 54 | 252 | 3.0 | 9.0 | 0.00 | 0.35 | 0.01 | 99 | 1015.2 |
| 20260510140017 | 54 | 252 | 5.0 | 9.0 | 0.00 | 0.35 | 0.01 | 99 | 1015.1 |
| 20260510135520 | 54 | 252 | 4.0 | 8.0 | 0.00 | 0.35 | 0.01 | 99 | 1015.1 |
| 20260510135016 | 54 | 252 | 3.0 | 7.0 | 0.00 | 0.35 | 0.01 | 99 | 1015.0 |
| 20260510134516 | 54 | 252 | 4.0 | 7.0 | 0.00 | 0.35 | 0.01 | 99 | 1014.8 |
| 20260510134015 | 54 | 252 | 2.0 | 5.0 | 0.00 | 0.35 | 0.01 | 99 | 1014.8 |
| 20260510133515 | 54 | 252 | 2.0 | 4.0 | 0.00 | 0.35 | 0.01 | 99 | 1014.8 |
| 20260510133017 | 54 | 252 | 1.0 | 3.0 | 0.00 | 0.35 | 0.01 | 99 | 1014.8 |
| 20260510132515 | 53 | 252 | 0.0 | 4.0 | 0.00 | 0.35 | 0.01 | 99 | 1014.8 |
| 20260510132015 | 53 | 252 | 2.0 | 7.0 | 0.00 | 0.35 | 0.01 | 99 | 1014.9 |
| 20260510131515 | 53 | 252 | 5.0 | 7.0 | 0.00 | 0.35 | 0.01 | 99 | 1014.8 |
| 20260510131014 | 52 | 252 | 4.0 | 7.0 | 0.00 | 0.35 | 0.01 | 98 | 1014.8 |
| 20260510130514 | 53 | 252 | 3.0 | 7.0 | 0.00 | 0.35 | 0.01 | 99 | 1014.8 |
| 20260510130014 | 53 | 252 | 3.0 | 7.0 | 0.00 | 0.35 | 0.01 | 98 | 1014.9 |
| 20260510125516 | 53 | 252 | 2.0 | 4.0 | 0.00 | 0.35 | 0.01 | 98 | 1015.0 |
| 20260510125016 | 53 | 252 | 2.0 | 7.0 | 0.00 | 0.35 | 0.01 | 99 | 1015.0 |
| 20260510124512 | 53 | 252 | 3.0 | 9.0 | 0.00 | 0.35 | 0.01 | 99 | 1015.0 |
| 20260510124016 | 53 | 252 | 5.0 | 9.0 | 0.00 | 0.35 | 0.01 | 99 | 1014.9 |
| 20260510123512 | 54 | 252 | 4.0 | 8.0 | 0.00 | 0.35 | 0.01 | 99 | 1014.8 |
| 20260510123011 | 54 | 252 | 1.0 | 8.0 | 0.00 | 0.35 | 0.01 | 99 | 1014.8 |
| 20260510122509 | 54 | 252 | 0.0 | 8.0 | 0.00 | 0.35 | 0.01 | 99 | 1014.6 |
| 20260510122010 | 54 | 252 | 4.0 | 9.0 | 0.00 | 0.35 | 0.01 | 99 | 1014.4 |
| 20260510121509 | 53 | 252 | 6.0 | 9.0 | 0.00 | 0.35 | 0.01 | 99 | 1014.3 |
| 20260510121009 | 53 | 277 | 4.0 | 7.0 | 0.00 | 0.35 | 0.01 | 99 | 1014.4 |
| 20260510120513 | 53 | 277 | 4.0 | 8.0 | 0.00 | 0.35 | 0.01 | 99 | 1014.4 |
| 20260510120007 | 53 | 278 | 3.0 | 7.0 | 0.00 | 0.35 | 0.01 | 98 | 1014.6 |
| 20260510115507 | 53 | 279 | 3.0 | 7.0 | 0.00 | 0.35 | 0.01 | 99 | 1014.6 |
| 20260510115006 | 53 | 277 | 1.0 | 4.0 | 0.00 | 0.35 | 0.01 | 99 | 1014.5 |
| 20260510114505 | 53 | 276 | 2.0 | 5.0 | 0.00 | 0.35 | 0.01 | 99 | 1014.2 |
| 20260510114004 | 53 | 279 | 2.0 | 5.0 | 0.00 | 0.35 | 0.01 | 99 | 1013.9 |
| 20260510113504 | 53 | 267 | 1.0 | 4.0 | 0.00 | 0.35 | 0.01 | 99 | 1013.9 |
| 20260510113003 | 52 | 360 | 1.0 | 4.0 | 0.00 | 0.35 | 0.01 | 98 | 1013.9 |
| 20260510112503 | 52 | 360 | 2.0 | 4.0 | 0.00 | 0.35 | 0.01 | 98 | 1013.9 |
| 20260510112004 | 52 | 360 | 1.0 | 5.0 | 0.00 | 0.35 | 0.01 | 99 | 1014.0 |
| 20260510111504 | 52 | 360 | 2.0 | 5.0 | 0.00 | 0.35 | 0.01 | 99 | 1014.0 |
| 20260510111002 | 52 | 360 | 1.0 | 6.0 | 0.00 | 0.35 | 0.01 | 98 | 1013.9 |
| 20260510110502 | 52 | 360 | 3.0 | 6.0 | 0.00 | 0.35 | 0.01 | 98 | 1014.0 |
| 20260510110007 | 52 | 360 | 2.0 | 6.0 | 0.00 | 0.35 | 0.01 | 98 | 1014.0 |
| 20260510105503 | 52 | 360 | 2.0 | 6.0 | 0.00 | 0.35 | 0.01 | 98 | 1013.9 |
| 20260510105001 | 52 | 360 | 2.0 | 5.0 | 0.00 | 0.35 | 0.01 | 98 | 1014.0 |
| 20260510104505 | 52 | 360 | 0.0 | 8.0 | 0.00 | 0.35 | 0.01 | 98 | 1014.0 |
| 20260510104003 | 52 | 360 | 2.0 | 9.0 | 0.00 | 0.35 | 0.01 | 98 | 1014.0 |
| 20260510103501 | 52 | 360 | 2.0 | 9.0 | 0.00 | 0.35 | 0.01 | 98 | 1014.2 |
| 20260510103109 | 52 | 360 | 2.0 | 8.0 | 0.00 | 0.35 | 0.01 | 98 | 1014.0 |
| 20260510102600 | 52 | 360 | 2.0 | 8.0 | 0.00 | 0.35 | 0.01 | 98 | 1014.1 |
| 20260510102102 | 52 | 360 | 3.0 | 9.0 | 0.00 | 0.35 | 0.01 | 98 | 1013.8 |
| 20260510101609 | 52 | 360 | 4.0 | 9.0 | 0.00 | 0.35 | 0.01 | 98 | 1014.1 |
| 20260510101057 | 52 | 360 | 3.0 | 8.0 | 0.00 | 0.35 | 0.01 | 98 | 1014.2 |
| 20260510100556 | 52 | 360 | 2.0 | 8.0 | 0.00 | 0.35 | 0.01 | 98 | 1014.1 |
| 20260510100100 | 52 | 360 | 2.0 | 10.0 | 0.00 | 0.35 | 0.01 | 98 | 1014.0 |
| 20260510095555 | 52 | 360 | 2.0 | 8.0 | 0.00 | 0.35 | 0.01 | 98 | 1013.8 |
| 20260510095054 | 52 | 360 | 3.0 | 6.0 | 0.00 | 0.35 | 0.01 | 98 | 1013.8 |
| 20260510094554 | 52 | 360 | 1.0 | 5.0 | 0.00 | 0.35 | 0.01 | 98 | 1013.7 |
| 20260510094053 | 52 | 360 | 1.0 | 5.0 | 0.00 | 0.35 | 0.01 | 98 | 1013.9 |
| 20260510093553 | 52 | 360 | 0.0 | 5.0 | 0.00 | 0.35 | 0.01 | 98 | 1013.9 |
| 20260510093053 | 52 | 360 | 2.0 | 4.0 | 0.00 | 0.35 | 0.01 | 98 | 1014.0 |
| 20260510092553 | 52 | 360 | 1.0 | 4.0 | 0.00 | 0.35 | 0.01 | 98 | 1014.1 |
| 20260510092051 | 52 | 360 | 1.0 | 6.0 | 0.00 | 0.35 | 0.01 | 98 | 1014.0 |
| 20260510091551 | 52 | 360 | 0.0 | 6.0 | 0.00 | 0.35 | 0.01 | 98 | 1014.1 |
| 20260510091051 | 52 | 249 | 2.0 | 4.0 | 0.00 | 0.35 | 0.01 | 98 | 1014.0 |
| 20260510090550 | 52 | 360 | 2.0 | 3.0 | 0.00 | 0.35 | 0.01 | 98 | 1013.6 |
| 20260510090052 | 52 | 360 | 0.0 | 3.0 | 0.00 | 0.35 | 0.01 | 98 | 1013.6 |
| 20260510085549 | 52 | 360 | 0.0 | 4.0 | 0.00 | 0.35 | 0.01 | 98 | 1013.5 |
| 20260510085049 | 52 | 360 | 2.0 | 4.0 | 0.00 | 0.35 | 0.01 | 98 | 1013.5 |
| 20260510084549 | 52 | 360 | 0.0 | 2.0 | 0.00 | 0.35 | 0.01 | 98 | 1013.6 |
| 20260510084049 | 52 | 360 | 0.0 | 3.0 | 0.00 | 0.35 | 0.01 | 98 | 1013.6 |
| 20260510083549 | 52 | 360 | 1.0 | 4.0 | 0.01 | 0.35 | 0.01 | 98 | 1013.6 |
| 20260510083048 | 52 | 360 | 1.0 | 4.0 | 0.01 | 0.35 | 0.01 | 98 | 1013.4 |
| 20260510082547 | 53 | 360 | 0.0 | 4.0 | 0.01 | 0.35 | 0.01 | 98 | 1013.4 |
| 20260510082047 | 53 | 360 | 0.0 | 3.0 | 0.01 | 0.35 | 0.01 | 98 | 1013.4 |
| 20260510081555 | 52 | 360 | 0.0 | 4.0 | 0.01 | 0.35 | 0.01 | 98 | 1013.3 |
| 20260510081046 | 53 | 360 | 0.0 | 2.0 | 0.01 | 0.35 | 0.01 | 98 | 1013.3 |
| 20260510080546 | 53 | 249 | 0.0 | 3.0 | 0.01 | 0.35 | 0.01 | 98 | 1013.3 |
| 20260510080045 | 53 | 360 | 1.0 | 4.0 | 0.01 | 0.35 | 0.01 | 98 | 1013.1 |
| 20260510075548 | 53 | 360 | 2.0 | 5.0 | 0.01 | 0.35 | 0.01 | 98 | 1013.3 |
| 20260510075045 | 53 | 360 | 1.0 | 5.0 | 0.01 | 0.35 | 0.01 | 98 | 1013.1 |
| 20260510074545 | 52 | 360 | 2.0 | 4.0 | 0.01 | 0.35 | 0.01 | 98 | 1013.1 |
| 20260510074043 | 52 | 360 | 1.0 | 5.0 | 0.00 | 0.34 | 0.00 | 98 | 1013.1 |
| 20260510073543 | 52 | 360 | 0.0 | 5.0 | 0.00 | 0.34 | 0.00 | 98 | 1013.1 |
| 20260510073042 | 52 | 360 | 2.0 | 5.0 | 0.00 | 0.34 | 0.00 | 98 | 1013.2 |
| 20260510072542 | 52 | 360 | 0.0 | 2.0 | 0.00 | 0.34 | 0.00 | 98 | 1013.1 |
| 20260510072045 | 52 | 360 | 0.0 | 2.0 | 0.00 | 0.34 | 0.00 | 98 | 1013.0 |
| 20260510071541 | 52 | 360 | 0.0 | 0.0 | 0.00 | 0.34 | 0.00 | 98 | 1012.8 |
| 20260510071040 | 52 | 248 | 0.0 | 0.0 | 0.00 | 0.34 | 0.00 | 98 | 1012.6 |
| 20260510070543 | 52 | 248 | 0.0 | 0.0 | 0.00 | 0.34 | 0.00 | 98 | 1012.6 |
| 20260510070045 | 52 | 248 | 0.0 | 0.0 | 0.00 | 0.34 | 0.00 | 98 | 1012.5 |
| 20260510065540 | 51 | 360 | 0.0 | 1.0 | 0.00 | 0.34 | 0.00 | 98 | 1012.5 |
| 20260510065039 | 51 | 360 | 0.0 | 1.0 | 0.00 | 0.34 | 0.00 | 98 | 1012.5 |
| 20260510064539 | 51 | 360 | 0.0 | 2.0 | 0.00 | 0.34 | 0.00 | 98 | 1012.5 |
| 20260510064039 | 52 | 360 | 0.0 | 2.0 | 0.00 | 0.34 | 0.00 | 98 | 1012.6 |
| 20260510063537 | 52 | 360 | 0.0 | 1.0 | 0.00 | 0.34 | 0.00 | 98 | 1012.7 |
| 20260510063036 | 52 | 248 | 0.0 | 0.0 | 0.00 | 0.34 | 0.00 | 98 | 1012.7 |
| 20260510062536 | 52 | 360 | 0.0 | 0.0 | 0.00 | 0.34 | 0.00 | 98 | 1012.6 |
| 20260510062035 | 52 | 249 | 0.0 | 0.0 | 0.00 | 0.34 | 0.00 | 98 | 1012.6 |
| 20260510061535 | 52 | 360 | 0.0 | 0.0 | 0.00 | 0.34 | 0.00 | 98 | 1012.6 |
| 20260510061037 | 52 | 248 | 0.0 | 0.0 | 0.00 | 0.34 | 0.00 | 98 | 1012.7 |
| 20260510060536 | 52 | 360 | 0.0 | 0.0 | 0.00 | 0.34 | 0.00 | 98 | 1012.8 |
| 20260510060035 | 52 | 360 | 0.0 | 0.0 | 0.00 | 0.34 | 0.00 | 98 | 1012.8 |
| 20260510055533 | 52 | 360 | 0.0 | 0.0 | 0.00 | 0.34 | 0.00 | 98 | 1012.8 |
| 20260510055033 | 52 | 360 | 0.0 | 0.0 | 0.00 | 0.34 | 0.00 | 98 | 1012.7 |
| 20260510054542 | 52 | 360 | 0.0 | 0.0 | 0.00 | 0.34 | 0.00 | 98 | 1012.8 |
| 20260510054032 | 52 | 360 | 0.0 | 0.0 | 0.00 | 0.34 | 0.00 | 98 | 1012.8 |
| 20260510053533 | 52 | 360 | 0.0 | 0.0 | 0.00 | 0.34 | 0.00 | 98 | 1012.8 |
| 20260510053034 | 52 | 248 | 0.0 | 0.0 | 0.00 | 0.34 | 0.00 | 98 | 1012.8 |
| 20260510052531 | 52 | 360 | 0.0 | 0.0 | 0.00 | 0.34 | 0.00 | 98 | 1012.9 |
| 20260510052031 | 52 | 360 | 0.0 | 0.0 | 0.00 | 0.34 | 0.00 | 98 | 1013.0 |
| 20260510051534 | 52 | 360 | 0.0 | 0.0 | 0.00 | 0.34 | 0.00 | 98 | 1013.1 |
| 20260510051029 | 52 | 360 | 0.0 | 0.0 | 0.00 | 0.34 | 0.00 | 98 | 1013.1 |
| 20260510050529 | 52 | 360 | 0.0 | 0.0 | 0.00 | 0.34 | 0.00 | 98 | 1013.1 |
| 20260510050028 | 52 | 360 | 0.0 | 0.0 | 0.00 | 0.34 | 0.00 | 98 | 1013.3 |
| 20260510045528 | 52 | 360 | 0.0 | 0.0 | 0.00 | 0.34 | 0.00 | 98 | 1013.3 |
| 20260510045027 | 52 | 360 | 0.0 | 0.0 | 0.00 | 0.34 | 0.00 | 98 | 1013.3 |
| 20260510044527 | 52 | 360 | 0.0 | 2.0 | 0.00 | 0.34 | 0.00 | 98 | 1013.2 |
| 20260510044025 | 52 | 360 | 0.0 | 2.0 | 0.00 | 0.34 | 0.00 | 98 | 1013.2 |
| 20260510043525 | 52 | 360 | 0.0 | 2.0 | 0.00 | 0.34 | 0.00 | 97 | 1013.1 |
| 20260510043024 | 52 | 248 | 0.0 | 2.0 | 0.00 | 0.34 | 0.00 | 97 | 1013.1 |
| 20260510042522 | 52 | 360 | 0.0 | 2.0 | 0.00 | 0.34 | 0.00 | 97 | 1013.3 |
| 20260510042020 | 52 | 360 | 0.0 | 0.0 | 0.00 | 0.34 | 0.00 | 97 | 1013.3 |
| 20260510041519 | 52 | 360 | 0.0 | 1.0 | 0.00 | 0.34 | 0.00 | 97 | 1013.2 |
| 20260510041018 | 52 | 360 | 0.0 | 2.0 | 0.00 | 0.34 | 0.00 | 97 | 1013.2 |
| 20260510040517 | 52 | 360 | 0.0 | 2.0 | 0.00 | 0.34 | 0.00 | 97 | 1013.2 |
| 20260510040016 | 52 | 360 | 0.0 | 1.0 | 0.00 | 0.34 | 0.34 | 97 | 1013.0 |
| 20260510035516 | 52 | 360 | 0.0 | 1.0 | 0.00 | 0.34 | 0.34 | 97 | 1013.0 |
| 20260510035015 | 52 | 360 | 0.0 | 2.0 | 0.00 | 0.34 | 0.34 | 97 | 1012.9 |
| 20260510034516 | 52 | 360 | 0.0 | 2.0 | 0.00 | 0.34 | 0.34 | 97 | 1013.1 |
| 20260510034019 | 52 | 360 | 0.0 | 2.0 | 0.00 | 0.34 | 0.34 | 97 | 1012.8 |
| 20260510033515 | 52 | 360 | 0.0 | 2.0 | 0.00 | 0.34 | 0.34 | 97 | 1012.8 |
| 20260510033014 | 52 | 360 | 0.0 | 0.0 | 0.00 | 0.34 | 0.34 | 97 | 1012.8 |
| 20260510032515 | 52 | 360 | 0.0 | 0.0 | 0.00 | 0.34 | 0.34 | 97 | 1012.8 |
| 20260510032014 | 52 | 248 | 0.0 | 0.0 | 0.00 | 0.34 | 0.34 | 97 | 1012.8 |
| 20260510031514 | 52 | 248 | 0.0 | 0.0 | 0.00 | 0.34 | 0.34 | 97 | 1012.8 |
| 20260510031014 | 52 | 360 | 0.0 | 0.0 | 0.00 | 0.34 | 0.34 | 97 | 1012.7 |
| 20260510030513 | 52 | 360 | 0.0 | 0.0 | 0.00 | 0.34 | 0.34 | 97 | 1012.8 |
| 20260510030015 | 52 | 360 | 0.0 | 0.0 | 0.00 | 0.34 | 0.34 | 97 | 1012.6 |
| 20260510025513 | 52 | 360 | 0.0 | 0.0 | 0.00 | 0.34 | 0.34 | 97 | 1012.6 |
| 20260510025013 | 52 | 249 | 0.0 | 0.0 | 0.00 | 0.34 | 0.34 | 97 | 1012.8 |
| 20260510024513 | 52 | 360 | 0.0 | 2.0 | 0.00 | 0.34 | 0.34 | 97 | 1012.8 |
| 20260510024013 | 52 | 248 | 0.0 | 4.0 | 0.00 | 0.34 | 0.34 | 97 | 1012.8 |
| 20260510023512 | 52 | 360 | 2.0 | 4.0 | 0.00 | 0.34 | 0.34 | 96 | 1013.1 |
| 20260510023014 | 53 | 360 | 0.0 | 3.0 | 0.00 | 0.34 | 0.34 | 97 | 1013.0 |
| 20260510022516 | 53 | 360 | 1.0 | 3.0 | 0.00 | 0.34 | 0.34 | 97 | 1013.1 |
| 20260510022012 | 53 | 249 | 0.0 | 0.0 | 0.00 | 0.34 | 0.34 | 97 | 1013.0 |
| 20260510021516 | 53 | 249 | 0.0 | 0.0 | 0.00 | 0.34 | 0.34 | 96 | 1012.9 |
| 20260510021012 | 53 | 360 | 0.0 | 0.0 | 0.00 | 0.34 | 0.34 | 96 | 1012.8 |
| 20260510020511 | 53 | 360 | 0.0 | 2.0 | 0.00 | 0.34 | 0.34 | 96 | 1012.8 |
| 20260510020011 | 53 | 360 | 1.0 | 2.0 | 0.00 | 0.34 | 0.34 | 96 | 1012.8 |
| 20260510015511 | 53 | 249 | 1.0 | 3.0 | 0.00 | 0.34 | 0.34 | 96 | 1012.8 |
| 20260510015011 | 53 | 360 | 2.0 | 4.0 | 0.00 | 0.34 | 0.34 | 96 | 1012.9 |
| 20260510014513 | 53 | 360 | 1.0 | 5.0 | 0.00 | 0.34 | 0.34 | 96 | 1012.9 |
| 20260510014011 | 53 | 248 | 2.0 | 5.0 | 0.00 | 0.34 | 0.34 | 96 | 1012.8 |
| 20260510013512 | 53 | 360 | 2.0 | 4.0 | 0.00 | 0.34 | 0.34 | 96 | 1012.8 |
| 20260510013010 | 53 | 360 | 1.0 | 3.0 | 0.00 | 0.34 | 0.34 | 96 | 1012.8 |
| 20260510012513 | 53 | 248 | 0.0 | 4.0 | 0.00 | 0.34 | 0.34 | 96 | 1012.8 |
| 20260510012010 | 53 | 360 | 1.0 | 4.0 | 0.00 | 0.34 | 0.34 | 96 | 1012.8 |
| 20260510011510 | 53 | 360 | 2.0 | 5.0 | 0.00 | 0.34 | 0.34 | 96 | 1012.7 |
| 20260510011010 | 53 | 242 | 1.0 | 3.0 | 0.00 | 0.34 | 0.34 | 96 | 1012.7 |
| 20260510010509 | 53 | 360 | 0.0 | 4.0 | 0.00 | 0.34 | 0.34 | 96 | 1012.7 |
| 20260510010009 | 53 | 360 | 1.0 | 3.0 | 0.00 | 0.34 | 0.34 | 96 | 1012.6 |
| 20260510005509 | 53 | 360 | 0.0 | 3.0 | 0.00 | 0.34 | 0.34 | 96 | 1012.4 |
| 20260510005009 | 53 | 360 | 1.0 | 3.0 | 0.00 | 0.34 | 0.34 | 96 | 1012.6 |
| 20260510004508 | 53 | 360 | 1.0 | 3.0 | 0.00 | 0.34 | 0.34 | 96 | 1012.4 |
| 20260510004012 | 53 | 360 | 0.0 | 3.0 | 0.00 | 0.34 | 0.34 | 96 | 1012.3 |
| 20260510003507 | 53 | 249 | 1.0 | 4.0 | 0.00 | 0.34 | 0.34 | 96 | 1012.4 |
| 20260510003007 | 53 | 249 | 1.0 | 4.0 | 0.00 | 0.34 | 0.34 | 96 | 1012.2 |
| 20260510002510 | 53 | 249 | 3.0 | 5.0 | 0.00 | 0.34 | 0.34 | 96 | 1012.1 |
| 20260510002006 | 53 | 249 | 2.0 | 5.0 | 0.00 | 0.34 | 0.34 | 95 | 1012.0 |
| 20260510001507 | 53 | 249 | 2.0 | 5.0 | 0.00 | 0.34 | 0.34 | 96 | 1012.1 |
| 20260510001006 | 54 | 249 | 2.0 | 4.0 | 0.00 | 0.34 | 0.34 | 96 | 1012.0 |
| 20260510000506 | 54 | 249 | 1.0 | 4.0 | 0.01 | 0.34 | 0.34 | 95 | 1012.0 |
| 20260510000011 | 54 | 249 | 2.0 | 4.0 | 0.01 | 0.34 | 0.34 | 95 | 1012.0 |
| 20260509235506 | 54 | 249 | 0.0 | 5.0 | 0.02 | 0.34 | 0.34 | 95 | 1011.9 |
| 20260509235005 | 54 | 249 | 1.0 | 5.0 | 0.03 | 0.34 | 0.34 | 95 | 1011.9 |
| 20260509234508 | 54 | 249 | 2.0 | 5.0 | 0.03 | 0.34 | 0.34 | 95 | 1011.9 |
| 20260509234007 | 54 | 249 | 3.0 | 7.0 | 0.04 | 0.34 | 0.34 | 95 | 1011.7 |
| 20260509233504 | 54 | 249 | 3.0 | 7.0 | 0.05 | 0.34 | 0.34 | 95 | 1011.8 |
| 20260509233004 | 54 | 249 | 3.0 | 5.0 | 0.06 | 0.34 | 0.34 | 95 | 1011.7 |
| 20260509232506 | 55 | 249 | 3.0 | 5.0 | 0.06 | 0.34 | 0.34 | 95 | 1011.7 |
| 20260509232002 | 55 | 249 | 0.0 | 4.0 | 0.06 | 0.34 | 0.34 | 95 | 1011.8 |
| 20260509231502 | 54 | 249 | 1.0 | 3.0 | 0.06 | 0.34 | 0.34 | 95 | 1011.8 |
| 20260509231001 | 54 | 249 | 0.0 | 4.0 | 0.06 | 0.34 | 0.34 | 95 | 1011.9 |
| 20260509230500 | 55 | 249 | 1.0 | 5.0 | 0.05 | 0.33 | 0.33 | 95 | 1012.0 |
| 20260509230100 | 55 | 249 | 0.0 | 7.0 | 0.05 | 0.33 | 0.33 | 94 | 1012.4 |
| 20260509225601 | 55 | 249 | 4.0 | 8.0 | 0.04 | 0.32 | 0.32 | 94 | 1013.0 |
| 20260509225059 | 55 | 249 | 6.0 | 9.0 | 0.03 | 0.31 | 0.31 | 94 | 1013.0 |
| 20260509224600 | 55 | 249 | 5.0 | 9.0 | 0.03 | 0.31 | 0.31 | 94 | 1012.9 |
| 20260509224059 | 55 | 249 | 4.0 | 9.0 | 0.02 | 0.30 | 0.30 | 94 | 1012.1 |
| 20260509223559 | 55 | 256 | 3.0 | 9.0 | 0.01 | 0.28 | 0.28 | 94 | 1012.9 |
| 20260509223103 | 55 | 246 | 6.0 | 9.0 | 0.00 | 0.28 | 0.28 | 94 | 1013.3 |
| 20260509222559 | 55 | 223 | 4.0 | 6.0 | 0.00 | 0.28 | 0.28 | 94 | 1012.7 |
| 20260509222057 | 55 | 218 | 2.0 | 5.0 | 0.00 | 0.28 | 0.28 | 94 | 1012.5 |
| 20260509221557 | 55 | 217 | 2.0 | 4.0 | 0.00 | 0.28 | 0.28 | 94 | 1012.3 |
| 20260509221057 | 55 | 217 | 1.0 | 7.0 | 0.00 | 0.28 | 0.28 | 94 | 1012.2 |
| 20260509220557 | 55 | 217 | 3.0 | 8.0 | 0.00 | 0.28 | 0.28 | 94 | 1012.3 |
| 20260509220058 | 55 | 217 | 6.0 | 10.0 | 0.00 | 0.28 | 0.28 | 94 | 1012.3 |
| 20260509215559 | 55 | 220 | 5.0 | 10.0 | 0.00 | 0.28 | 0.28 | 93 | 1012.4 |
| 20260509215056 | 55 | 211 | 6.0 | 10.0 | 0.00 | 0.28 | 0.28 | 93 | 1012.3 |
| 20260509214555 | 55 | 229 | 3.0 | 9.0 | 0.00 | 0.28 | 0.28 | 94 | 1012.6 |
| 20260509214055 | 55 | 245 | 4.0 | 10.0 | 0.00 | 0.28 | 0.28 | 94 | 1012.6 |
| 20260509213555 | 55 | 184 | 5.0 | 12.0 | 0.01 | 0.28 | 0.28 | 94 | 1012.6 |
| 20260509213055 | 55 | 208 | 6.0 | 13.0 | 0.01 | 0.28 | 0.28 | 94 | 1012.7 |
| 20260509212554 | 55 | 219 | 7.0 | 13.0 | 0.01 | 0.28 | 0.28 | 93 | 1012.7 |
| 20260509212055 | 55 | 243 | 6.0 | 15.0 | 0.01 | 0.28 | 0.28 | 93 | 1012.6 |
| 20260509211559 | 55 | 202 | 8.0 | 15.0 | 0.01 | 0.28 | 0.28 | 93 | 1012.6 |
| 20260509211054 | 55 | 234 | 5.0 | 12.0 | 0.01 | 0.28 | 0.28 | 93 | 1012.7 |
| 20260509210555 | 55 | 229 | 5.0 | 13.0 | 0.01 | 0.28 | 0.28 | 93 | 1012.7 |
| 20260509210105 | 54 | 232 | 7.0 | 13.0 | 0.01 | 0.28 | 0.28 | 93 | 1012.7 |
| 20260509205553 | 54 | 248 | 6.0 | 11.0 | 0.01 | 0.28 | 0.28 | 93 | 1012.8 |
| 20260509205053 | 54 | 241 | 6.0 | 12.0 | 0.01 | 0.28 | 0.28 | 92 | 1012.8 |
| 20260509204553 | 54 | 229 | 6.0 | 12.0 | 0.01 | 0.28 | 0.28 | 92 | 1012.7 |
| 20260509204053 | 54 | 233 | 9.0 | 15.0 | 0.01 | 0.28 | 0.28 | 92 | 1012.6 |
| 20260509203556 | 54 | 195 | 11.0 | 17.0 | 0.03 | 0.27 | 0.27 | 92 | 1012.6 |
| 20260509203053 | 54 | 198 | 9.0 | 17.0 | 0.04 | 0.27 | 0.27 | 92 | 1012.6 |
| 20260509202556 | 54 | 201 | 11.0 | 22.0 | 0.05 | 0.27 | 0.27 | 91 | 1012.5 |
| 20260509202052 | 55 | 200 | 13.0 | 23.0 | 0.06 | 0.27 | 0.27 | 91 | 1012.5 |
| 20260509201551 | 55 | 193 | 15.0 | 25.0 | 0.07 | 0.27 | 0.27 | 92 | 1012.6 |
| 20260509201050 | 55 | 155 | 17.0 | 22.0 | 0.07 | 0.27 | 0.27 | 92 | 1012.7 |
| 20260509200549 | 55 | 211 | 16.0 | 22.0 | 0.07 | 0.27 | 0.27 | 92 | 1012.9 |
| 20260509200053 | 55 | 196 | 8.0 | 22.0 | 0.07 | 0.27 | 0.27 | 92 | 1012.8 |
| 20260509195550 | 55 | 214 | 11.0 | 22.0 | 0.08 | 0.27 | 0.27 | 92 | 1012.8 |
| 20260509195046 | 55 | 259 | 8.0 | 23.0 | 0.09 | 0.27 | 0.27 | 92 | 1012.9 |
| 20260509194546 | 55 | 192 | 12.0 | 21.0 | 0.11 | 0.27 | 0.27 | 93 | 1012.9 |
| 20260509194045 | 55 | 193 | 9.0 | 19.0 | 0.12 | 0.27 | 0.27 | 93 | 1013.1 |
| 20260509193544 | 56 | 236 | 8.0 | 28.0 | 0.12 | 0.24 | 0.24 | 92 | 1013.2 |
| 20260509193045 | 56 | 254 | 11.0 | 28.0 | 0.13 | 0.23 | 0.23 | 93 | 1013.2 |
| 20260509192546 | 56 | 194 | 14.0 | 27.0 | 0.13 | 0.21 | 0.21 | 93 | 1013.2 |
| 20260509192045 | 56 | 199 | 14.0 | 23.0 | 0.16 | 0.21 | 0.21 | 93 | 1013.2 |
| 20260509191543 | 55 | 256 | 7.0 | 16.0 | 0.16 | 0.20 | 0.20 | 93 | 1013.4 |
| 20260509191044 | 55 | 220 | 9.0 | 15.0 | 0.16 | 0.20 | 0.20 | 92 | 1013.2 |
| 20260509190547 | 55 | 235 | 9.0 | 17.0 | 0.16 | 0.20 | 0.20 | 92 | 1013.4 |
| 20260509190048 | 55 | 227 | 8.0 | 16.0 | 0.17 | 0.20 | 0.20 | 92 | 1013.4 |
| 20260509185542 | 55 | 242 | 8.0 | 14.0 | 0.16 | 0.19 | 0.19 | 92 | 1013.4 |
| 20260509185041 | 55 | 242 | 9.0 | 14.0 | 0.14 | 0.17 | 0.17 | 92 | 1013.6 |
| 20260509184541 | 55 | 244 | 9.0 | 20.0 | 0.15 | 0.16 | 0.16 | 91 | 1013.6 |
| 20260509184041 | 56 | 225 | 12.0 | 21.0 | 0.14 | 0.15 | 0.15 | 92 | 1013.5 |
| 20260509183540 | 56 | 225 | 8.0 | 23.0 | 0.10 | 0.11 | 0.11 | 91 | 1013.4 |
| 20260509183040 | 56 | 204 | 13.0 | 21.0 | 0.09 | 0.09 | 0.09 | 91 | 1013.2 |
| 20260509182539 | 56 | 199 | 13.0 | 20.0 | 0.07 | 0.07 | 0.07 | 91 | 1013.3 |
| 20260509182039 | 56 | 217 | 10.0 | 20.0 | 0.05 | 0.05 | 0.05 | 91 | 1013.2 |
| 20260509181538 | 56 | 246 | 10.0 | 19.0 | 0.04 | 0.04 | 0.04 | 91 | 1013.4 |
| 20260509181038 | 56 | 195 | 12.0 | 19.0 | 0.04 | 0.04 | 0.04 | 91 | 1013.1 |
| 20260509180538 | 55 | 271 | 10.0 | 16.0 | 0.04 | 0.04 | 0.04 | 91 | 1013.2 |
| 20260509180037 | 55 | 235 | 7.0 | 20.0 | 0.03 | 0.03 | 0.03 | 91 | 1013.3 |
| 20260509175537 | 55 | 202 | 9.0 | 20.0 | 0.03 | 0.03 | 0.03 | 90 | 1013.3 |
| 20260509175036 | 56 | 211 | 6.0 | 14.0 | 0.03 | 0.03 | 0.03 | 90 | 1013.4 |
| 20260509174538 | 56 | 215 | 4.0 | 17.0 | 0.01 | 0.01 | 0.01 | 89 | 1013.3 |
| 20260509174036 | 56 | 213 | 8.0 | 20.0 | 0.01 | 0.01 | 0.01 | 87 | 1013.2 |
| 20260509173539 | 57 | 233 | 13.0 | 20.0 | 0.00 | 0.00 | 0.00 | 86 | 1013.4 |
| 20260509173100 | 57 | 261 | 11.0 | 20.0 | 0.00 | 0.00 | 0.00 | 86 | 1013.3 |
| 20260509172535 | 57 | 187 | 10.0 | 18.0 | 0.00 | 0.00 | 0.00 | 85 | 1013.0 |
| 20260509172035 | 58 | 260 | 10.0 | 18.0 | 0.00 | 0.00 | 0.00 | 85 | 1013.4 |
| 20260509171540 | 57 | 254 | 8.0 | 15.0 | 0.00 | 0.00 | 0.00 | 86 | 1013.0 |
| 20260509171034 | 57 | 246 | 9.0 | 14.0 | 0.00 | 0.00 | 0.00 | 86 | 1013.1 |
| 20260509170536 | 57 | 261 | 8.0 | 14.0 | 0.00 | 0.00 | 0.00 | 85 | 1013.1 |
| 20260509170033 | 57 | 272 | 7.0 | 17.0 | 0.00 | 0.00 | 0.00 | 85 | 1013.2 |
| 20260509165532 | 57 | 247 | 10.0 | 17.0 | 0.00 | 0.00 | 0.00 | 85 | 1013.1 |
| 20260509165032 | 57 | 238 | 11.0 | 17.0 | 0.00 | 0.00 | 0.00 | 85 | 1013.1 |
| 20260509164532 | 58 | 234 | 9.0 | 18.0 | 0.00 | 0.00 | 0.00 | 84 | 1013.2 |
| 20260509164032 | 58 | 205 | 9.0 | 18.0 | 0.00 | 0.00 | 0.00 | 83 | 1013.3 |
| 20260509163531 | 58 | 241 | 6.0 | 11.0 | 0.00 | 0.00 | 0.00 | 83 | 1013.5 |
| 20260509163030 | 59 | 243 | 4.0 | 9.0 | 0.00 | 0.00 | 0.00 | 83 | 1013.6 |
| 20260509162532 | 58 | 243 | 4.0 | 11.0 | 0.00 | 0.00 | 0.00 | 85 | 1013.7 |
| 20260509162028 | 57 | 242 | 5.0 | 13.0 | 0.00 | 0.00 | 0.00 | 85 | 1013.7 |
| 20260509161527 | 57 | 242 | 6.0 | 13.0 | 0.00 | 0.00 | 0.00 | 86 | 1013.9 |
| 20260509161025 | 57 | 238 | 8.0 | 14.0 | 0.00 | 0.00 | 0.00 | 86 | 1014.1 |
| 20260509160525 | 57 | 238 | 7.0 | 14.0 | 0.00 | 0.00 | 0.00 | 86 | 1014.1 |
| 20260509160025 | 57 | 236 | 8.0 | 14.0 | 0.00 | 0.00 | 0.00 | 86 | 1014.2 |
| 20260509155524 | 57 | 233 | 6.0 | 14.0 | 0.00 | 0.00 | 0.00 | 86 | 1014.1 |
| 20260509155024 | 57 | 232 | 7.0 | 14.0 | 0.00 | 0.00 | 0.00 | 86 | 1014.3 |
| 20260509154524 | 57 | 228 | 5.0 | 15.0 | 0.00 | 0.00 | 0.00 | 86 | 1014.4 |
| 20260509154024 | 57 | 226 | 6.0 | 15.0 | 0.00 | 0.00 | 0.00 | 85 | 1014.4 |
| 20260509153523 | 57 | 221 | 6.0 | 11.0 | 0.00 | 0.00 | 0.00 | 86 | 1014.1 |
| 20260509153031 | 57 | 218 | 7.0 | 15.0 | 0.00 | 0.00 | 0.00 | 85 | 1014.3 |
| 20260509152523 | 57 | 211 | 7.0 | 15.0 | 0.00 | 0.00 | 0.00 | 85 | 1014.3 |
| 20260509152023 | 57 | 205 | 7.0 | 13.0 | 0.00 | 0.00 | 0.00 | 86 | 1014.3 |